CW5306 Weather Reports


time (UTC)temp
C
wind
direction
speed
KPH
gust
KPH
rain 1hr
cm
rain 24hr
cm
rain mn
cm
humidity
%
barometer
mb
20260831115348 24 69 8.0 25.7 0.00 0.43 0.05 85 1016.9
20260831114616 24 97 14.5 27.4 0.00 0.43 0.05 85 1016.9
20260831114116 25 76 8.0 27.4 0.00 0.43 0.05 86 1017.0
20260831113616 25 108 8.0 27.4 0.00 0.43 0.05 85 1016.8
20260831113346 25 110 8.0 25.7 0.00 0.43 0.05 85 1016.9
20260831112615 24 87 17.7 25.7 0.00 0.43 0.05 85 1017.0
20260831112115 24 87 16.1 32.2 0.00 0.43 0.05 85 1017.0
20260831111615 24 90 17.7 32.2 0.00 0.43 0.05 85 1017.1
20260831111116 24 113 12.9 24.1 0.03 0.43 0.05 86 1017.1
20260831110615 24 90 6.4 24.1 0.03 0.43 0.05 86 1017.1
20260831110116 24 80 12.9 32.2 0.05 0.43 0.05 86 1017.1
20260831105616 24 87 12.9 33.8 0.05 0.43 0.05 87 1017.5
20260831105115 23 109 19.3 33.8 0.05 0.43 0.05 87 1017.2
20260831104615 23 120 17.7 33.8 0.05 0.43 0.05 88 1017.4
20260831104115 23 114 11.3 27.4 0.05 0.43 0.05 89 1017.6
20260831103846 23 96 14.5 24.1 0.05 0.43 0.05 90 1017.6
20260831103118 22 137 9.7 25.7 0.05 0.43 0.05 90 1017.7
20260831102616 23 104 14.5 27.4 0.05 0.43 0.05 90 1017.9
20260831102115 23 157 12.9 33.8 0.05 0.43 0.03 90 1018.1
20260831101615 23 97 12.9 45.1 0.05 0.43 0.03 90 1018.1
20260831101115 23 85 19.3 45.1 0.03 0.43 0.03 90 1017.9
20260831100615 23 137 20.9 45.1 0.03 0.41 0.00 90 1017.8
20260831100115 23 142 20.9 45.1 0.08 0.41 0.00 89 1017.9
20260831095615 23 150 0.0 14.5 0.08 0.41 0.41 90 1017.6
20260831095115 23 115 3.2 16.1 0.08 0.41 0.41 90 1017.7
20260831094616 23 133 6.4 16.1 0.08 0.41 0.41 90 1018.0
20260831094116 23 140 0.0 14.5 0.08 0.41 0.41 90 1017.9
20260831093616 23 122 8.0 17.7 0.08 0.41 0.41 90 1017.8
20260831093116 23 131 0.0 17.7 0.08 0.41 0.41 90 1018.1
20260831092616 22 140 0.0 20.9 0.08 0.38 0.38 90 1018.3
20260831092347 22 120 4.8 22.5 0.08 0.38 0.38 90 1018.4
20260831091616 22 143 6.4 27.4 0.08 0.38 0.38 89 1018.5
20260831091347 22 58 22.5 32.2 0.08 0.38 0.38 88 1018.8
20260831090615 23 111 25.7 45.1 0.05 0.38 0.38 87 1018.5
20260831090115 23 92 12.9 45.1 0.00 0.33 0.38 86 1018.7
20260831085615 24 133 16.1 33.8 0.00 0.33 0.33 87 1018.7
20260831085115 24 123 16.1 25.7 0.00 0.33 0.33 88 1018.2
20260831084615 24 92 6.4 24.1 0.00 0.33 0.33 88 1018.1
20260831084115 24 116 16.1 24.1 0.05 0.33 0.33 88 1018.0
20260831083615 24 74 0.0 22.5 0.15 0.33 0.33 89 1018.1
20260831083115 24 77 9.7 22.5 0.15 0.33 0.33 89 1018.3
20260831082615 23 49 12.9 24.1 0.20 0.33 0.33 89 1018.2
20260831082116 23 72 9.7 24.1 0.23 0.33 0.33 89 1018.2
20260831081846 23 103 8.0 22.5 0.23 0.33 0.33 90 1018.3
20260831081117 23 88 8.0 24.1 0.23 0.33 0.33 90 1018.4
20260831080846 23 91 6.4 24.1 0.23 0.33 0.33 90 1018.4
20260831080115 23 104 1.6 22.5 0.23 0.33 0.33 90 1018.3
20260831075615 23 91 12.9 24.1 0.23 0.33 0.33 89 1018.4
20260831075116 23 99 12.9 32.2 0.23 0.33 0.33 89 1018.6
20260831074615 23 126 12.9 41.8 0.23 0.30 0.30 89 1018.4
20260831074115 23 67 8.0 41.8 0.18 0.28 0.28 87 1018.7
20260831073616 24 90 6.4 27.4 0.08 0.15 0.15 87 1018.2
20260831073115 25 114 14.5 32.2 0.08 0.15 0.15 86 1018.4
20260831072616 25 143 22.5 32.2 0.03 0.10 0.10 84 1018.4
20260831072347 25 75 16.1 27.4 0.00 0.08 0.08 83 1018.0
20260831071615 25 141 9.7 22.5 0.00 0.08 0.08 83 1018.2
20260831071115 25 108 9.7 27.4 0.00 0.08 0.08 83 1018.1
20260831070847 25 92 6.4 27.4 0.00 0.08 0.08 82 1018.3
20260831070347 25 96 12.9 27.4 0.00 0.08 0.08 82 1018.2
20260831065615 25 79 14.5 30.6 0.00 0.08 0.08 82 1017.9
20260831065115 25 90 14.5 33.8 0.00 0.08 0.08 82 1017.9
20260831064846 25 66 12.9 33.8 0.00 0.08 0.08 82 1018.0
20260831064115 25 108 14.5 27.4 0.00 0.08 0.08 82 1017.7
20260831063616 25 79 14.5 30.6 0.00 0.08 0.08 83 1017.7
20260831063116 25 66 14.5 27.4 0.00 0.08 0.08 83 1017.8
20260831062848 25 49 9.7 25.7 0.00 0.08 0.08 86 1017.6
20260831062116 25 54 11.3 25.7 0.00 0.08 0.08 86 1017.7
20260831061616 24 115 11.3 17.7 0.00 0.08 0.08 85 1017.5
20260831061115 25 136 9.7 25.7 0.00 0.08 0.08 85 1017.5
20260831060615 25 125 6.4 25.7 0.00 0.08 0.08 85 1017.4
20260831060347 25 50 6.4 22.5 0.03 0.08 0.08 86 1017.3
20260831055616 25 123 8.0 22.5 0.05 0.08 0.08 86 1017.5
20260831055115 25 85 9.7 24.1 0.05 0.08 0.08 86 1017.6
20260831054615 25 89 9.7 24.1 0.05 0.08 0.08 86 1017.5
20260831054115 24 103 11.3 22.5 0.05 0.08 0.08 86 1017.2
20260831053614 24 132 12.9 22.5 0.05 0.08 0.08 87 1017.3
20260831053114 24 127 6.4 24.1 0.05 0.08 0.08 87 1017.1
20260831052614 24 120 9.7 24.1 0.05 0.08 0.08 87 1017.2
20260831052114 24 124 0.0 22.5 0.05 0.08 0.08 88 1017.2
20260831051614 24 109 1.6 22.5 0.05 0.08 0.08 88 1017.0
20260831051114 24 55 8.0 17.7 0.05 0.08 0.08 88 1016.8
20260831050603 24 54 9.7 22.5 0.05 0.08 0.08 87 1016.9
20260831045833 25 131 14.5 27.4 0.00 0.05 0.05 84 1016.7
20260831045103 25 83 14.5 27.4 0.00 0.03 0.03 83 1017.0
20260831044602 25 64 9.7 32.2 0.00 0.03 0.03 83 1016.9
20260831044102 25 100 17.7 32.2 0.00 0.03 0.03 83 1016.8
20260831043602 25 98 17.7 27.4 0.00 0.03 0.03 84 1016.6
20260831043103 25 89 12.9 27.4 0.00 0.03 0.03 84 1016.6
20260831042834 25 58 11.3 33.8 0.00 0.03 0.03 85 1016.7
20260831042335 25 66 14.5 33.8 0.00 0.03 0.03 85 1016.6
20260831041839 25 46 8.0 33.8 0.03 0.03 0.03 82 1016.6
20260831041603 25 74 9.7 33.8 0.03 0.03 0.03 83 1016.5
20260831040602 25 96 6.4 37.0 0.03 0.03 0.03 83 1016.4
20260831035603 25 82 27.4 37.0 0.03 0.03 0.03 85 1016.5
20260831035103 25 92 19.3 37.0 0.03 0.03 0.03 85 1016.5
20260831034602 25 108 9.7 37.0 0.03 0.03 0.03 85 1016.4
20260831034103 25 107 22.5 33.8 0.00 0.03 0.03 85 1016.0
20260831033833 25 73 17.7 27.4 0.00 0.03 0.03 85 1015.9
20260831033102 25 74 19.3 27.4 0.00 0.03 0.03 86 1016.0
20260831032601 25 91 9.7 32.2 0.00 0.03 0.03 86 1015.9
20260831032103 25 30 19.3 33.8 0.00 0.03 0.03 86 1016.1
20260831031602 26 39 17.7 33.8 0.00 0.00 0.03 84 1016.2
20260831031059 26 82 16.1 30.6 0.00 0.00 0.00 80 1015.9
20260831030600 26 68 11.3 30.6 0.00 0.00 0.00 78 1016.1
20260831030100 26 94 14.5 30.6 0.00 0.00 0.00 77 1016.0
20260831025831 26 70 11.3 20.9 0.00 0.00 0.00 78 1016.0
20260831025101 26 135 11.3 24.1 0.00 0.00 0.00 78 1016.1
20260831024830 26 112 17.7 24.1 0.00 0.00 0.00 78 1016.0
20260831024059 26 79 6.4 27.4 0.00 0.00 0.00 78 1016.1
20260831023600 26 136 14.5 27.4 0.00 0.00 0.00 77 1016.0
20260831023059 26 54 8.0 22.5 0.00 0.00 0.00 77 1016.0
20260831022836 26 102 8.0 24.1 0.00 0.00 0.00 76 1016.2
20260831022559 26 90 9.7 22.5 0.00 0.00 0.00 76 1016.1
20260831021559 26 146 14.5 27.4 0.00 0.00 0.00 75 1016.1
20260831021058 26 139 8.0 38.6 0.00 0.00 0.00 74 1016.1
20260831020559 26 79 14.5 38.6 0.00 0.00 0.00 76 1016.5
20260831020059 26 115 16.1 33.8 0.00 0.00 0.00 76 1016.1
20260831015601 26 79 14.5 22.5 0.00 0.00 0.00 77 1016.2
20260831015046 26 62 11.3 24.1 0.00 0.00 0.00 76 1016.1
20260831014545 26 83 8.0 37.0 0.00 0.00 0.00 77 1016.3
20260831014045 26 90 11.3 37.0 0.00 0.00 0.00 77 1016.2
20260831013816 27 81 17.7 37.0 0.00 0.00 0.00 74 1016.1
20260831013046 27 49 16.1 27.4 0.00 0.00 0.00 75 1016.1
20260831012546 27 62 12.9 32.2 0.00 0.00 0.00 72 1016.1
20260831012046 28 105 17.7 40.2 0.00 0.00 0.00 73 1016.0
20260831011804 27 115 17.7 40.2 0.00 0.00 0.00 73 1016.3
20260831011033 27 107 9.7 27.4 0.00 0.00 0.00 73 1016.6
20260831010534 27 91 14.5 27.4 0.00 0.00 0.00 72 1016.4
20260831010034 28 88 16.1 32.2 0.00 0.00 0.00 71 1016.7
20260831005805 28 105 20.9 32.2 0.00 0.00 0.00 71 1016.4
20260831005035 28 62 9.7 25.7 0.00 0.00 0.00 71 1016.5
20260831004534 28 91 12.9 25.7 0.00 0.00 0.00 70 1016.5
20260831004252 28 73 9.7 25.7 0.00 0.00 0.00 71 1016.3
20260831003522 28 26 6.4 27.4 0.00 0.00 0.00 73 1016.4
20260831003022 27 103 14.5 32.2 0.00 0.00 0.00 72 1016.9
20260831002521 27 66 12.9 32.2 0.00 0.00 0.00 73 1016.6
20260831002022 27 82 11.3 27.4 0.00 0.00 0.00 73 1016.9
20260831001522 27 76 14.5 30.6 0.00 0.00 0.00 73 1016.9
20260831001022 27 113 12.9 30.6 0.00 0.00 0.00 74 1017.1
20260831000509 27 82 12.9 27.4 0.00 0.00 0.00 74 1017.1
20260831000009 27 76 12.9 30.6 0.00 0.00 0.00 74 1016.9
20260830235509 27 157 8.0 30.6 0.00 0.00 0.00 74 1017.2
20260830235009 27 115 17.7 30.6 0.00 0.00 0.00 73 1017.1
20260830234509 28 73 17.7 30.6 0.00 0.00 0.00 73 1017.0
20260830234010 27 101 17.7 30.6 0.00 0.00 0.00 73 1017.2
20260830233509 27 134 9.7 30.6 0.00 0.00 0.00 73 1017.3
20260830233010 27 79 20.9 27.4 0.00 0.00 0.00 75 1017.2
20260830232740 27 64 17.7 27.4 0.00 0.00 0.00 73 1017.4
20260830232242 27 79 11.3 30.6 0.00 0.00 0.00 76 1017.4
20260830231509 27 102 17.7 32.2 0.00 0.00 0.00 75 1017.6
20260830231241 27 116 14.5 30.6 0.00 0.00 0.00 74 1017.5
20260830230510 27 97 14.5 33.8 0.00 0.00 0.00 74 1017.5
20260830230010 27 102 14.5 33.8 0.00 0.00 0.00 74 1017.7
20260830225510 27 102 14.5 27.4 0.00 0.00 0.00 75 1017.7
20260830225010 27 106 14.5 33.8 0.00 0.00 0.00 76 1017.8
20260830224510 27 76 8.0 33.8 0.00 0.00 0.00 76 1017.9
20260830224005 28 121 17.7 30.6 0.00 0.00 0.00 76 1017.8
20260830223456 28 103 11.3 22.5 0.00 0.00 0.00 75 1018.1
20260830222956 27 61 12.9 32.2 0.00 0.00 0.00 77 1018.0
20260830222504 27 96 16.1 33.8 0.00 0.00 0.00 76 1018.1
20260830222457 27 104 20.9 33.8 0.00 0.00 0.00 75 1018.1
20260830221459 27 54 17.7 33.8 0.00 0.00 0.00 75 1018.3
20260830220957 27 82 12.9 33.8 0.00 0.00 0.00 74 1018.4
20260830220450 27 69 14.5 37.0 0.00 0.00 0.00 74 1018.2
20260830215945 27 65 19.3 37.0 0.00 0.00 0.00 75 1018.2
20260830215445 27 94 11.3 30.6 0.00 0.00 0.00 74 1017.9
20260830214945 27 40 9.7 30.6 0.00 0.00 0.00 78 1018.3
20260830214445 27 60 22.5 38.6 0.00 0.00 0.00 80 1018.3
20260830213944 26 55 11.3 38.6 0.00 0.00 0.00 81 1018.2
20260830213445 26 41 17.7 38.6 0.00 0.00 0.00 81 1018.3
20260830212945 26 60 24.1 45.1 0.00 0.00 0.00 81 1018.4
20260830212433 26 88 22.5 38.6 0.00 0.00 0.00 80 1018.5
20260830211935 27 69 20.9 27.4 0.00 0.00 0.00 76 1018.1
20260830211705 27 88 14.5 32.2 0.00 0.00 0.00 76 1018.4
20260830210932 27 108 20.9 32.2 0.00 0.00 0.00 74 1018.4
20260830210432 27 62 16.1 30.6 0.00 0.00 0.00 73 1018.2
20260830205931 27 66 16.1 30.6 0.00 0.00 0.00 75 1018.5
20260830205431 27 113 19.3 30.6 0.00 0.00 0.00 75 1018.4
20260830204932 27 68 20.9 32.2 0.00 0.00 0.00 75 1018.3
20260830204432 27 116 16.1 32.2 0.00 0.00 0.00 74 1018.5
20260830203931 27 133 12.9 30.6 0.00 0.00 0.00 72 1018.3
20260830203433 27 121 12.9 25.7 0.00 0.00 0.00 74 1018.1
20260830203201 27 116 14.5 25.7 0.00 0.00 0.00 74 1018.3
20260830202430 27 65 12.9 25.7 0.00 0.00 0.00 74 1018.2
20260830201932 26 70 14.5 25.7 0.00 0.00 0.00 75 1018.4
20260830201431 26 78 12.9 24.1 0.00 0.00 0.00 74 1018.3
20260830200931 26 120 6.4 25.7 0.00 0.00 0.00 73 1018.1
20260830200432 26 90 12.9 27.4 0.00 0.00 0.00 73 1018.7
20260830195936 25 105 14.5 25.7 0.00 0.00 0.00 76 1018.5
20260830195931 25 93 8.0 27.4 0.00 0.00 0.00 75 1018.4
20260830194930 25 75 4.8 41.8 0.00 0.00 0.00 78 1018.4
20260830194431 25 71 16.1 41.8 0.00 0.00 0.00 79 1018.7
20260830193931 25 68 25.7 37.0 0.00 0.00 0.00 77 1018.5
20260830193431 25 153 16.1 46.7 0.00 0.00 0.00 79 1018.2
20260830192930 25 103 22.5 54.7 0.00 0.00 0.00 78 1018.4
20260830192430 25 81 17.7 54.7 0.00 0.00 0.00 78 1018.3
20260830192201 26 94 16.1 41.8 0.00 0.00 0.00 78 1018.2
20260830191431 26 85 27.4 41.8 0.00 0.00 0.00 78 1018.1
20260830190931 26 92 19.3 32.2 0.00 0.00 0.00 73 1018.1
20260830190419 27 81 17.7 32.2 0.00 0.00 0.00 74 1018.0
20260830185907 26 87 14.5 32.2 0.00 0.00 0.00 75 1017.8
20260830185408 26 67 17.7 33.8 0.00 0.00 0.00 75 1017.7
20260830184907 26 100 17.7 33.8 0.00 0.00 0.00 74 1017.9
20260830184407 26 72 12.9 30.6 0.00 0.00 0.00 75 1018.1
20260830183907 26 69 12.9 30.6 0.00 0.00 0.00 75 1018.0
20260830183407 26 88 14.5 30.6 0.00 0.00 0.00 74 1017.7
20260830183138 26 99 17.7 32.2 0.00 0.00 0.00 74 1017.8
20260830182406 26 46 12.9 32.2 0.00 0.00 0.00 76 1017.6
20260830181906 26 77 14.5 32.2 0.00 0.00 0.00 76 1017.7
20260830181640 26 165 17.7 32.2 0.00 0.00 0.00 76 1018.0
20260830180906 26 97 14.5 33.8 0.00 0.00 0.00 76 1017.7
20260830180638 26 80 11.3 33.8 0.00 0.00 0.00 75 1017.6
20260830175907 26 74 17.7 32.2 0.00 0.00 0.00 75 1017.8
20260830175407 26 89 20.9 32.2 0.00 0.00 0.00 75 1017.5
20260830175140 26 81 17.7 32.2 0.00 0.00 0.00 74 1017.6
20260830174406 26 80 9.7 32.2 0.00 0.00 0.00 75 1017.5
20260830173907 26 63 9.7 27.4 0.00 0.00 0.00 76 1017.6
20260830173408 26 52 17.7 30.6 0.00 0.00 0.00 76 1017.4
20260830173138 26 43 12.9 30.6 0.00 0.00 0.00 76 1017.6
20260830172406 26 69 14.5 30.6 0.00 0.00 0.00 77 1017.4
20260830171906 26 74 12.9 33.8 0.00 0.00 0.00 76 1017.3
20260830171407 26 57 11.3 33.8 0.00 0.00 0.00 76 1017.5
20260830170908 25 100 12.9 32.2 0.00 0.00 0.00 76 1017.5
20260830170407 25 72 11.3 33.8 0.00 0.00 0.00 76 1017.1
20260830165907 25 84 17.7 33.8 0.00 0.00 0.00 77 1017.5
20260830165407 25 87 14.5 27.4 0.00 0.00 0.00 77 1017.1
20260830165138 25 91 17.7 32.2 0.00 0.00 0.00 77 1017.1
20260830164645 25 67 17.7 33.8 0.00 0.00 0.00 76 1017.1
20260830164406 25 94 20.9 33.8 0.00 0.00 0.00 76 1017.2
20260830163406 25 32 11.3 30.6 0.00 0.00 0.00 77 1017.1
20260830162906 25 79 14.5 30.6 0.00 0.00 0.00 77 1017.1
20260830162406 25 126 14.5 32.2 0.00 0.00 0.00 77 1017.0
20260830161906 25 37 14.5 32.2 0.00 0.00 0.00 78 1016.9
20260830161406 25 93 8.0 27.4 0.00 0.00 0.00 78 1016.9
20260830160907 25 107 8.0 25.7 0.00 0.00 0.00 78 1016.9
20260830160406 25 98 11.3 30.6 0.00 0.00 0.00 79 1016.8
20260830155912 25 103 16.1 30.6 0.00 0.00 0.00 78 1016.8
20260830155906 25 86 16.1 30.6 0.00 0.00 0.00 77 1016.9
20260830154906 25 72 11.3 32.2 0.00 0.00 0.00 79 1016.6
20260830154407 25 101 14.5 37.0 0.00 0.00 0.00 78 1016.9
20260830153906 25 64 20.9 37.0 0.00 0.00 0.00 78 1016.6
20260830153406 25 92 16.1 30.6 0.00 0.00 0.00 78 1016.5
20260830152906 25 76 11.3 25.7 0.00 0.00 0.00 79 1016.6
20260830152407 25 95 12.9 32.2 0.00 0.00 0.00 78 1016.6
20260830151907 25 129 11.3 32.2 0.00 0.00 0.00 78 1016.7
20260830151406 25 87 11.3 37.0 0.00 0.00 0.00 79 1016.7
20260830150907 25 66 29.0 37.0 0.00 0.00 0.00 77 1016.6
20260830150407 25 73 16.1 32.2 0.00 0.00 0.00 77 1016.6
20260830145907 25 100 11.3 30.6 0.00 0.00 0.00 78 1016.3
20260830145407 25 76 17.7 30.6 0.00 0.00 0.00 78 1016.2
20260830145139 25 73 19.3 30.6 0.00 0.00 0.00 78 1016.1
20260830144407 25 108 14.5 30.6 0.00 0.00 0.00 78 1016.2
20260830144138 25 104 17.7 27.4 0.00 0.00 0.00 79 1016.2
20260830143407 25 116 11.3 33.8 0.00 0.00 0.00 78 1016.4
20260830142909 25 103 12.9 33.8 0.00 0.00 0.00 79 1016.1
20260830142407 25 57 16.1 37.0 0.00 0.00 0.00 79 1016.3
20260830141912 25 87 14.5 40.2 0.00 0.03 0.00 79 1016.2
20260830141907 25 109 9.7 37.0 0.00 0.03 0.00 79 1016.1
20260830140906 25 90 24.1 38.6 0.00 0.03 0.00 79 1016.0
20260830140406 25 72 20.9 33.8 0.00 0.03 0.00 79 1016.1
20260830135908 25 96 22.5 30.6 0.00 0.03 0.00 80 1015.9
20260830135637 25 87 17.7 37.0 0.00 0.03 0.00 80 1016.0
20260830134907 25 75 20.9 37.0 0.00 0.03 0.00 79 1016.1
20260830134407 25 95 19.3 32.2 0.00 0.03 0.00 78 1016.2
20260830134138 25 99 24.1 32.2 0.00 0.03 0.00 79 1016.0
20260830133407 25 84 17.7 33.8 0.00 0.03 0.00 79 1015.9
20260830132906 25 70 17.7 33.8 0.00 0.03 0.00 79 1015.9
20260830132406 25 99 14.5 37.0 0.00 0.03 0.00 79 1015.8
20260830131906 25 81 17.7 37.0 0.00 0.03 0.00 79 1015.9
20260830131406 25 47 9.7 33.8 0.00 0.03 0.00 78 1016.1
20260830131143 25 87 12.9 33.8 0.00 0.03 0.00 78 1016.1
20260830130906 25 103 12.9 33.8 0.00 0.03 0.00 78 1015.9
20260830125906 25 72 17.7 33.8 0.00 0.03 0.00 78 1016.0
20260830125406 25 89 11.3 33.8 0.00 0.03 0.00 78 1016.0
20260830124906 25 148 17.7 33.8 0.00 0.03 0.00 77 1016.1
20260830124407 25 99 14.5 33.8 0.00 0.03 0.00 77 1016.1
20260830124138 25 90 17.7 33.8 0.00 0.03 0.00 79 1016.0
20260830124012 25 121 14.5 33.8 0.00 0.03 0.00 78 1016.1
20260830122907 25 112 19.3 37.0 0.00 0.03 0.00 78 1016.2
20260830122406 25 57 19.3 37.0 0.00 0.03 0.00 78 1016.1
20260830121906 25 48 9.7 32.2 0.00 0.03 0.00 77 1016.2
20260830121407 25 67 12.9 33.8 0.00 0.03 0.00 78 1016.4
20260830120907 25 92 11.3 33.8 0.00 0.03 0.00 78 1016.4
20260830120639 25 89 16.1 30.6 0.00 0.03 0.00 77 1016.4
20260830115907 25 22 9.7 32.2 0.00 0.03 0.00 76 1016.4